Voltar ao catálogo

QIANFAN-76

AtivoComunicaçõesPO
NORAD 63162·PAYLOAD·🇨🇳 China

Lançado Mar 11, 2025 de Wenchang Space Launch Site

Loading…

Próximas Passagens (próximas 24 horas)

TLE

AtualizadoSource: Space-Track

Época: Sep 14, 2026, 21:38 UTC

1 63162U 25046D   26257.90140748  .00000126  00000-0  17606-3 0  9992
2 63162  88.9653 291.4585 0015173  55.6019 304.6564 13.51021805 84642

Acompanhe QIANFAN-76 em tempo real com AllMySat

Download on the App Store